map of SVP home
SVP - Airport
Location
City:  Kuito, Bié, Angola
Name:Silva Porto
ICAO:FNKU
IATA:SVP

Details
Type:Airport (Aerodrome, Airfield)
Latitude:12°24'17"S (-12.404632)
Longitude:16°56'51"E (16.947414)
Datum:other
Elevation:5618 ft (1712 m)
Variation:3.75°W (WMM2015v2 magnetic declination)
0.15° annual change
Runways:1
Longest:8202 × 98 ft (2500 × 30 m), paved

Time
Time Zone:UTC+1
Local Time:

Weather
METAR:FNKU 041300Z 18010KT 9999 SCT017 26/22 Q1017
TAF:FNKU 032245Z 0400/0412 VRB03KT 5000 RADZ BR SCT008 FEW016CB BKN018
BECMG 0406/0408 9999 NSW SCT013 BKN050 PROB30
TEMPO 0408/0412 09008KT 7000 -TSRA BKN020 FEW023CB

Related Locations
Nearby:
Farthest:PLPA: 11977 mi / 19275 km
Palmyra Island Atoll [Palmyra Airport (Cooper)], UM

Find:

   beyond  
but within

Other Information
Maps:
NOTAMs:
Links:
Sources:

  
  • flag of Angola
  

Sectional Chart

Flight Planning
at skyvector.com

Satellite Image

Google Maps Satellite view

 

Copyright © 2004-2019 Karl L. Swartz. All rights reserved.
The Great Circle Mapper name and logo are trademarks of the Great Circle Mapper.
All other trademarks mentioned herein belong to their respective owners.
Please see credits for attibutions and further copyright information.

  Follow gcmap on Facebook Follow gcmap on Twitter GCmap on LinkedIn

hCard Microformat

Geo Microformat